Volver al catálogo

FENGYUN 1C DEB

ActivoSSO
NORAD 41018·DEBRIS·🇨🇳 China

Lanzado May 10, 1999 desde Taiyuan Satellite Launch Center

Loading…

Próximos Pases (próximas 24 horas)

TLE

ActualizadoSource: Space-Track

Época: Sep 12, 2026, 02:53 UTC

1 41018U 99025EXY 26255.12076311  .00001311  00000-0  15113-2 0  9999
2 41018  99.9437 205.6232 0304873 162.1169 199.0980 13.53104577918716

Sigue FENGYUN 1C DEB en tiempo real con AllMySat

Download on the App Store